Tracking 29892 objects as of 21-Nov-2024
HD Live streaming from Space Station
objects crossing your sky now

ONEWEB-0687

Track ONEWEB-0687 now!
10-day predictions
ONEWEB-0687 is classified as:


NORAD ID: 61595
Int'l Code: 2024-188B
Perigee: 623.2 km
Apogee: 632.0 km
Inclination: 86.6 °
Period: 97.1 minutes
Semi major axis: 6998 km
RCS: Unknown
Launch date: October 20, 2024
Source: United States (US)
Launch site: AIR FORCE WESTERN TEST RANGE (AFWTR)
Your satellite tracking list
Your tracking list is empty




NASA's NSSDC Master Catalog

Two Line Element Set (TLE):
1 61595U 24188B   24325.49283742  .00002680  00000-0  32813-3 0  9990
2 61595  86.5775 157.0770 0006302 104.6154 255.5768 14.82821530  7600
Source of the keplerian elements: AFSPC